Startseite
Über Mich
AHP4
Galerie
Sehschlangen
Tourenbuch
Bookmarks
Elektronik
Bewertung
Geschichten
[Tagesmessung] [Jahreswerte] [Information]

Messwerte vom 17.02.2022

Die letzten Messwerte von 23:58:45 Uhr:
KategorieMesswert
Temperatur [°C]5
Luftdruck [mBar]991
Sonneneinstrahlung0
Wind [km/h]9 aus West
Niederschlag [l/m²]0
rel.Luftfeucht.77.2%
CO2 [ppm]560

Diagramme
Messwerte vom 17.02.2022
Tagesaggregation
KategorieMinimumMaximumSchnittSumme
Temperatur [°C]4117.5604
Luftdruck [mBar]967991979.4292
Sonneneinstrahlung24583.5104
Wind [km/h]44
rF [%]54.996.676.12
Niederschlag [l/m²]4.12
CO2 [ppm]401560414.5
Einordnung alsVegetationstag

Messungen an benachbarten Tagen: Zur Jahresaggregation 2022
Tabelle aller Messwerte
UhrzeitTemperatur [°C]Luftdruck [mBar]SonneWind [km/h]RichtungRegen [l/m²]rF [%]CO2 [ppm]
00:01:47 11 969 0 9 S 0.515 96.6 436
00:04:47 11 969 0 5 W 0 96.6 436
00:07:49 11 969 0 5 S 0 96.6 442
00:10:48 11 969 0 6 SO 0 96.6 439
00:13:47 11 969 0 7 W 0.2575 96.6 431
00:16:47 11 969 0 11 S 0 96.6 434
00:19:48 11 968 0 10 SW 0 96.6 439
00:22:50 11 968 0 12 SW 0 96.6 448
00:25:48 11 968 0 23 SO 0 96.6 448
00:28:47 11 968 0 18 SO 0 96.6 439
00:31:46 11 968 0 5 W 0 96.6 439
00:34:48 11 968 0 6 SO 0 96.6 433
00:37:45 11 969 0 11 S 0.2575 96.6 441
00:40:47 11 968 0 9 S 0 96.6 445
00:43:48 11 968 0 14 W 0.2575 96.6 451
00:46:47 11 968 0 4 SW 0.2575 96.6 445
00:49:49 11 968 0 6 S 0 96.6 454
00:52:45 11 968 0 7 SO 0.2575 96.6 446
00:55:46 11 969 0 10 S 0 96.6 445
00:58:48 11 968 0 7 NO 0.2575 96.6 431
01:01:48 11 968 0 15 SW 0 96.6 430
01:04:48 11 967 0 6 SO 0 96.6 422
01:07:48 11 968 0 25 SO 0 96.6 422
01:10:48 11 968 0 14 S 0 96.6 422
01:13:45 11 969 0 14 W 0.2575 96.6 415
01:16:45 11 968 0 3 W 0 96.6 405
01:19:47 10 969 0 17 S 0.2575 96.6 407
01:22:47 10 968 0 18 W 0 96.6 404
01:25:47 10 969 0 14 SW 0 96.6 406
01:28:49 10 969 0 32 NO 0 96.6 407
01:31:47 10 969 0 28 NW 0 96.6 407
01:34:47 9 969 0 23 W 0.2575 96.6 407
01:37:46 9 969 0 21 W 0.2575 96.6 402
01:40:48 8 969 0 17 NW 0 96.6 404
01:43:46 8 969 0 37 SW 0.2575 96.6 408
01:46:47 8 969 0 25 W 0 96.6 401
01:49:46 8 969 0 13 S 0.2575 96.6 404
01:52:46 8 969 0 27 W 0 96.6 404
01:55:47 8 969 0 33 W 0 96.6 407
01:58:47 8 969 0 18 SW 0 96.6 405
02:01:46 8 969 0 18 W 0.2575 96.6 406
02:04:44 8 969 0 12 W 0 96.6 407
02:07:49 8 969 0 8 NW 0 96.6 405
02:10:46 8 969 0 12 W 0 96.6 405
02:13:49 8 970 0 29 W 0 96.6 408
02:16:48 8 970 0 9 SW 0 96.6 407
02:19:46 8 970 0 13 S 0 96.6 404
02:22:46 9 970 0 10 SW 0 96.6 406
02:25:47 9 970 0 14 NW 0 96.6 403
02:28:45 9 970 0 11 S 0 96.6 407
02:31:48 8 969 0 14 W 0 96.6 404
02:34:46 8 970 0 11 SW 0 96.6 408
02:37:46 8 970 0 9 SW 0 96.6 407
02:40:47 8 969 0 11 SW 0 96.6 407
02:43:46 8 969 0 4 S 0 96.6 404
02:46:49 8 969 0 15 SW 0 96.6 406
02:49:47 8 969 0 10 W 0 96.6 404
02:52:47 8 969 0 13 W 0 96.6 407
02:55:46 8 969 0 9 S 0 96.6 404
02:58:47 8 969 0 13 S 0 96.6 407
03:01:46 8 969 0 8 SW 0 96.6 407
03:04:45 9 969 0 8 S 0 96.6 407
03:07:45 9 969 0 4 W 0 96.5 407
03:10:47 9 969 0 18 W 0 96 404
03:13:49 9 969 0 13 NW 0 95 405
03:16:47 9 969 0 10 NW 0 93.4 407
03:19:49 9 969 0 22 SW 0 91.5 407
03:22:49 9 969 0 13 NW 0 91 404
03:25:47 9 969 0 6 O 0 90.4 407
03:28:48 9 969 0 21 NO 0 89.9 404
03:31:46 9 969 0 18 W 0 89.1 407
03:34:48 9 969 0 26 SW 0 88.2 407
03:37:47 9 972 0 17 NW 0 87.8 405
03:40:50 9 969 0 16 NW 0 87.3 404
03:43:48 9 969 0 32 S 0 86.4 404
03:46:48 9 969 0 14 NW 0 86 404
03:49:47 9 969 0 19 SW 0 85.6 406
03:52:46 9 969 0 6 SW 0 85.1 407
03:55:47 9 969 0 11 SW 0 85.5 404
03:58:48 9 969 0 9 SO 0 86.4 405
04:01:48 9 969 0 14 SW 0 85.1 407
04:04:46 9 969 0 10 S 0 84.7 404
04:07:46 9 969 0 18 W 0 81.7 404
04:10:47 9 969 0 16 S 0 80.9 406
04:13:47 9 969 0 27 SW 0 79.9 404
04:16:46 9 969 0 10 SW 0 78.5 406
04:19:47 9 969 0 18 W 0 79.3 404
04:22:49 8 969 0 40 NW 0 83.2 407
04:25:46 8 969 0 34 SO 0 84.8 407
04:28:49 7 970 0 23 NW 0 91.7 407
04:31:47 7 972 0 25 O 0 92.7 404
04:34:46 7 970 0 14 N 0 94.1 407
04:37:45 7 970 0 16 N 0 93.4 404
04:40:49 7 970 0 23 NW 0 92.1 404
04:43:49 7 970 0 26 SW 0 87.9 407
04:46:47 7 970 0 31 W 0 87.5 403
04:49:46 7 971 0 23 S 0 85.2 404
04:52:45 7 970 0 39 S 0 84.7 407
04:55:47 7 970 0 9 SO 0 85.3 407
04:58:46 7 970 0 16 N 0 86.1 406
05:01:48 7 970 0 34 W 0 87 407
05:04:47 7 970 0 25 S 0 86.6 404
05:07:47 7 970 0 18 SW 0 86.7 406
05:10:47 7 971 0 22 W 0 86.5 408
05:13:46 7 971 0 20 SW 0 86 406
05:16:47 7 971 0 27 S 0 85.3 406
05:19:50 8 970 0 20 SW 0 84.9 407
05:22:48 8 971 0 17 SW 0 85 407
05:25:47 7 972 0 22 W 0 85.2 406
05:28:48 7 972 0 13 S 0 85.7 407
05:31:46 7 971 0 17 SW 0 86.1 407
05:34:48 7 972 0 19 NW 0 86.1 407
05:37:45 7 971 0 14 W 0 85.3 404
05:40:46 7 972 0 6 W 0 84.7 407
05:43:48 7 972 0 8 SW 0 84.2 404
05:46:45 7 972 0 9 SW 0 83 407
05:49:46 8 972 0 17 SW 0 81.3 405
05:52:48 8 972 0 17 NW 0 80.1 406
05:55:48 8 972 0 11 W 0 79.1 405
05:58:49 8 972 0 14 SO 0 78.6 401
06:01:47 8 973 0 17 SW 0 78.6 407
06:04:47 8 972 0 24 W 0 77.7 404
06:07:50 8 973 0 19 SW 0.2575 74.6 404
06:10:47 8 972 0 14 SW 0 74.5 407
06:13:47 8 974 0 12 SW 0 73.9 407
06:16:45 8 973 0 13 S 0 73.7 407
06:19:47 8 972 0 17 N 0 74 405
06:22:45 8 973 0 9 SW 0 74.4 406
06:25:48 8 973 0 28 W 0 73.4 410
06:28:46 8 973 0 30 W 0 72.6 404
06:31:45 8 972 0 15 O 0 72.7 406
06:34:47 8 972 0 31 SW 0 73.7 405
06:37:47 8 972 0 19 NW 0 71.6 401
06:40:51 8 972 0 13 NW 0 72.5 406
06:43:45 8 973 0 14 W 0 72.5 404
06:46:46 8 973 0 21 W 0 72.6 407
06:49:46 8 972 0 24 SO 0 71.9 410
06:52:46 8 972 0 17 W 0 71.3 407
06:55:47 8 972 0 22 SW 0 70.1 407
06:58:48 8 973 0 22 S 0 69.8 407
07:01:47 8 973 0 29 S 0 70.4 407
07:04:47 8 973 3 11 SW 0 70 404
07:07:46 8 973 6 9 SO 0 70.4 407
07:10:50 8 973 10 21 SW 0 70 407
07:13:50 8 973 16 22 W 0 69.9 404
07:16:47 8 973 22 11 SW 0 69.9 404
07:19:49 8 973 33 13 NW 0 69.2 407
07:22:46 8 973 41 31 S 0 69.3 407
07:25:48 8 973 45 43 W 0 69 404
07:28:48 8 973 58 12 W 0 68.4 406
07:31:46 8 973 69 6 SW 0 69.9 404
07:34:47 8 973 85 11 W 0 69.9 404
07:37:49 8 973 93 25 SW 0 69.1 404
07:40:49 8 973 101 12 SW 0 68.3 407
07:43:49 8 973 105 18 SW 0 68.2 406
07:46:48 8 973 107 12 SW 0 68.3 407
07:49:48 8 973 119 24 SW 0 67.7 406
07:52:48 8 973 126 12 W 0 67.8 406
07:55:48 8 973 138 34 S 0 67.6 407
07:58:47 8 973 145 20 SW 0 67 406
08:01:50 8 973 140 32 SW 0 66.8 404
08:04:50 8 973 144 17 W 0 66.1 403
08:07:47 8 973 136 12 W 0 66.1 407
08:10:48 8 974 140 29 NO 0 66.2 407
08:13:49 8 974 146 17 SW 0 66 404
08:16:47 8 974 158 20 W 0 65 407
08:19:48 8 974 162 23 S 0 66 404
08:22:50 8 974 155 23 W 0 66.1 407
08:25:49 8 974 162 31 SW 0 65.7 404
08:28:47 8 975 171 14 NW 0 65.5 406
08:31:47 8 975 171 19 S 0 65.9 404
08:34:47 8 975 169 18 S 0 65.8 407
08:37:46 8 975 161 9 W 0 67 404
08:40:49 8 977 163 22 W 0 67.6 404
08:43:48 8 975 175 30 W 0 68 407
08:46:48 8 975 177 32 NW 0 67.5 407
08:49:52 8 976 182 20 NW 0 66.6 405
08:52:48 8 976 178 27 S 0 65.9 407
08:55:49 8 976 181 21 S 0 64.8 407
08:58:51 8 976 177 27 S 0 65.2 403
09:01:48 8 976 182 19 NW 0 65.4 404
09:04:48 8 975 183 31 W 0 66 407
09:07:47 8 976 190 13 N 0 65.3 407
09:10:47 8 976 196 7 SO 0 65.2 403
09:13:50 8 976 195 35 SW 0 64.8 403
09:16:49 8 976 198 17 NW 0 64.7 407
09:19:48 8 976 200 17 SW 0 64.9 403
09:22:47 8 976 200 14 W 0 65 404
09:25:48 8 976 201 19 W 0 65.4 407
09:28:47 8 976 203 12 S 0 64.7 404
09:31:48 8 976 193 26 W 0 65 404
09:34:51 8 976 204 19 SW 0 64.8 407
09:37:48 8 976 208 16 SW 0 64.8 403
09:40:49 9 976 207 41 SW 0 64.4 407
09:43:48 9 976 202 24 SW 0 63.9 407
09:46:47 9 976 206 41 W 0 64.3 407
09:49:49 8 976 195 33 NW 0 63.7 407
09:52:48 8 976 199 35 SW 0 62.9 406
09:55:48 8 976 201 26 NW 0 63.6 403
09:58:51 8 976 205 23 SW 0 63.6 406
10:01:47 8 976 207 12 SO 0 63.5 406
10:04:50 8 976 205 35 SW 0 63.6 407
10:07:48 8 977 201 24 SW 0 63.2 404
10:10:54 8 976 207 13 W 0 63.2 407
10:13:47 8 977 209 30 0 63.5 404
10:16:48 8 976 208 29 SW 0 63.4 407
10:19:47 8 977 213 41 SW 0 62.8 407
10:22:48 9 976 196 11 S 0 62.9 407
10:25:48 9 977 203 6 N 0 63.5 407
10:28:49 9 977 216 23 SW 0 63.3 404
10:31:49 9 977 207 20 NW 0 62.7 404
10:34:48 9 977 211 25 SW 0 62.4 404
10:37:49 9 977 216 32 W 0 62.5 404
10:40:52 9 977 218 25 SO 0 63.1 406
10:43:47 9 978 210 23 W 0 64.1 406
10:46:48 9 978 196 24 SW 0 64.5 407
10:49:47 9 978 204 23 W 0 63.5 408
10:52:49 9 978 201 18 S 0 63.8 406
10:55:49 9 978 205 14 W 0 64.1 407
10:58:49 9 979 209 28 SW 0 64.2 407
11:01:47 9 978 210 24 SW 0 63.9 404
11:04:48 9 979 220 18 SO 0 64.4 404
11:07:49 9 980 217 23 SW 0 64.7 407
11:10:50 9 980 214 27 SW 0 65.2 407
11:13:46 9 979 211 24 W 0 65.3 404
11:16:47 8 979 213 44 W 0 66.7 407
11:19:49 8 980 206 12 SW 0 68.4 404
11:22:47 8 980 213 19 SW 0 69.5 404
11:25:50 8 980 202 18 NW 0 70.9 404
11:28:48 8 980 215 6 W 0 71.8 407
11:31:48 8 980 221 13 SO 0 73 404
11:34:46 8 980 205 8 W 0 73.6 404
11:37:49 7 980 220 13 SW 0 78.4 407
11:40:49 7 980 222 26 NW 0 79 406
11:43:47 8 980 222 15 NW 0 78.7 404
11:46:48 8 980 222 19 W 0 77.8 404
11:49:49 8 980 210 23 SW 0 73.6 404
11:52:46 8 980 210 12 S 0 73.6 407
11:55:48 8 980 204 15 W 0 72.7 405
11:58:47 8 980 212 18 NW 0 73 408
12:01:48 8 980 217 18 SW 0 73.8 407
12:04:49 8 981 224 24 SW 0 74.5 408
12:07:47 8 980 223 11 W 0 74.9 404
12:10:50 8 980 221 24 NW 0 72 404
12:13:50 8 980 229 14 NW 0 71.6 407
12:16:49 9 980 227 37 SW 0 68.3 408
12:19:49 9 981 218 18 NW 0 67.3 407
12:22:48 9 980 212 27 W 0 65.9 407
12:25:50 9 980 198 27 NW 0 66.4 408
12:28:48 8 980 190 16 W 0 66.8 404
12:31:50 8 980 201 13 NW 0 67.2 405
12:34:47 8 980 202 5 S 0 67.2 404
12:37:48 8 981 203 17 SW 0 67.9 407
12:40:49 8 980 218 26 NW 0 67.3 407
12:43:49 8 981 224 20 NW 0 66.3 404
12:46:51 8 980 225 21 SW 0 64.9 404
12:49:48 9 980 223 13 SW 0 64.8 407
12:52:48 9 981 219 33 W 0 65.5 404
12:55:49 9 980 195 30 NW 0 65.1 404
12:58:46 8 980 192 20 O 0 64.5 404
13:01:48 8 981 194 18 SO 0 70.2 404
13:04:49 7 981 183 16 W 0 73.1 404
13:07:47 7 981 197 16 W 0 76.6 407
13:10:47 7 981 209 12 W 0 77 404
13:13:48 7 982 223 8 W 0 79.5 407
13:16:47 7 981 220 5 W 0 81.1 406
13:19:48 7 982 223 14 SW 0 81.5 404
13:22:50 8 982 217 34 SW 0 70.9 408
13:25:49 8 982 207 19 W 0 66.4 404
13:28:48 8 982 201 21 W 0 65.8 404
13:31:49 8 981 219 39 W 0 64.4 407
13:34:49 8 982 215 24 SO 0 64 401
13:37:48 9 982 214 9 W 0 63.9 407
13:40:47 9 983 222 36 W 0 63 404
13:43:49 9 982 225 27 NW 0 62.7 401
13:46:48 9 982 218 16 S 0 62.5 407
13:49:50 9 982 220 17 NW 0 62.1 407
13:52:48 9 983 213 16 SW 0 61.4 404
13:55:47 9 983 200 43 NW 0 61.7 404
13:58:48 9 982 223 26 NW 0 61.4 404
14:01:47 9 983 217 17 S 0 62.6 404
14:04:47 9 982 210 24 W 0 62.4 401
14:07:49 9 983 207 19 W 0 61.8 407
14:10:49 9 983 230 16 W 0 62 404
14:13:48 9 983 231 14 SW 0 62.4 404
14:16:48 9 983 204 11 SW 0 61.2 404
14:19:47 9 983 206 37 W 0 61 407
14:22:49 9 983 202 21 W 0 61.6 404
14:25:47 8 983 240 8 NW 0 62.4 404
14:28:51 9 983 225 25 SW 0 62.2 406
14:31:48 9 983 237 19 NW 0 62.3 407
14:34:52 9 983 244 20 W 0 62.6 407
14:37:46 9 983 226 15 W 0 61 404
14:40:48 9 984 222 14 S 0 59.6 404
14:43:49 9 983 235 16 NW 0 58.9 404
14:46:47 9 984 244 15 SW 0 59.1 404
14:49:47 9 984 226 8 NW 0 59.9 404
14:52:46 10 984 244 19 SW 0 57.5 404
14:55:47 10 984 245 35 W 0 55.8 404
14:58:49 10 983 240 27 SW 0 54.9 404
15:01:49 10 984 223 22 SW 0 56.4 405
15:04:47 9 983 214 14 SW 0 57.8 407
15:07:47 9 984 215 18 S 0 58.9 404
15:10:50 9 984 209 36 SW 0 59.6 407
15:13:50 9 984 210 23 SW 0 59.2 405
15:16:48 9 984 224 27 SW 0 60.3 404
15:19:49 9 984 241 29 NW 0 61.1 407
15:22:47 9 984 240 7 S 0 60.6 406
15:25:48 9 984 236 9 S 0 60.5 404
15:28:50 9 984 232 26 SW 0 58.4 407
15:31:51 9 984 230 23 SW 0 59.3 408
15:34:51 9 984 231 16 W 0 60.1 405
15:37:48 9 984 236 5 SW 0 60.3 407
15:40:49 9 984 236 8 S 0 61.7 407
15:43:48 9 984 235 23 W 0 61.7 405
15:46:50 9 984 230 15 SW 0 60.6 407
15:49:47 9 984 225 15 SW 0 60.6 407
15:52:47 9 984 224 5 O 0 61.4 407
15:55:50 9 984 219 8 SW 0 60.2 404
15:58:47 9 984 217 13 N 0 59.9 407
16:01:49 8 984 200 20 NW 0 59.9 404
16:04:47 8 984 201 23 W 0 59.7 405
16:07:49 8 984 202 21 SW 0 60.7 404
16:10:48 8 984 211 31 SW 0 61.4 404
16:13:46 8 984 215 3 SW 0 62.1 404
16:16:46 8 984 201 15 W 0 62.4 407
16:19:49 7 984 210 11 NW 0 63.2 404
16:22:49 7 985 208 30 NW 0 63.2 406
16:25:46 7 984 220 17 W 0 62.9 407
16:28:47 7 985 194 23 SW 0 63.1 407
16:31:47 7 985 186 6 W 0 63.2 408
16:34:46 7 984 206 11 S 0 64.1 407
16:37:49 7 984 205 6 SW 0 67 406
16:40:47 7 984 180 9 S 0 67.4 407
16:43:50 7 985 142 12 SW 0 68.2 403
16:46:48 7 985 100 9 SW 0 68.3 404
16:49:48 7 984 94 20 SW 0 68.5 407
16:52:46 7 985 170 15 NW 0 74.1 406
16:55:48 6 984 199 24 W 0 78 407
16:58:48 6 984 191 30 W 0 78.3 407
17:01:48 6 986 189 19 SW 0 78.3 407
17:04:46 6 985 180 12 W 0 78.2 406
17:07:47 6 985 168 24 SW 0 76.7 406
17:10:51 6 986 163 26 S 0 73.8 405
17:13:48 6 986 158 14 NW 0 73.5 407
17:16:49 6 986 152 19 S 0 73.5 407
17:19:46 6 984 146 12 SW 0 73.7 407
17:22:48 6 987 133 21 SW 0 73.8 407
17:25:47 6 986 119 8 S 0 73.3 404
17:28:46 6 987 98 13 W 0 73 407
17:31:46 6 986 72 32 S 0 72.4 407
17:34:47 7 986 50 20 O 0 71.7 404
17:37:49 7 986 33 18 SO 0 72.1 404
17:40:49 6 986 21 30 SW 0 75.4 407
17:43:48 6 987 19 36 NW 0 78.2 407
17:46:49 6 987 10 10 SW 0 81 406
17:49:47 5 987 40 9 NW 0 82.1 407
17:52:47 5 987 32 16 SW 0 84.1 404
17:55:47 5 987 22 12 W 0 85.1 404
17:58:47 5 987 14 26 W 0 86 407
18:01:46 5 987 8 14 W 0 86.7 407
18:04:47 5 987 5 14 SW 0 86.2 407
18:07:45 5 987 3 14 S 0 85.8 407
18:10:45 5 987 0 20 W 0 85.7 407
18:13:46 5 987 0 7 N 0 85.2 407
18:16:47 5 987 0 10 S 0 84.9 404
18:19:46 5 987 0 8 S 0 84.7 404
18:22:46 5 987 0 26 W 0 84.6 404
18:25:46 5 987 0 7 S 0 84.4 405
18:28:45 5 987 0 21 W 0 84.3 404
18:31:48 5 987 0 8 SW 0 83.7 404
18:34:47 5 987 0 10 SW 0 83.4 408
18:37:49 5 987 0 17 SW 0 82.9 407
18:40:48 5 987 0 22 SW 0 82.6 404
18:43:46 5 987 0 4 N 0 81.7 407
18:46:45 5 987 0 15 SW 0 81.4 407
18:49:49 5 988 0 10 NW 0 80.5 405
18:52:47 5 987 0 12 W 0 80 404
18:55:45 6 987 0 15 W 0 79 407
18:58:46 6 987 0 8 SW 0 78.4 404
19:01:45 6 987 0 5 W 0 77.5 407
19:04:44 5 987 0 4 W 0 77.4 407
19:07:46 5 987 0 23 W 0 78 407
19:10:46 5 987 0 7 SW 0 77.5 407
19:13:47 5 987 0 10 NW 0 77.7 407
19:16:47 5 987 0 21 NW 0 78.5 404
19:19:46 5 987 0 16 W 0 78.9 407
19:22:47 5 988 0 12 W 0 79 406
19:25:46 5 988 0 7 SW 0 79.3 407
19:28:47 5 988 0 9 W 0 79.3 404
19:31:45 5 987 0 9 W 0 79.8 406
19:34:47 5 987 0 11 SW 0 80.2 404
19:37:46 5 988 0 9 W 0 80.7 407
19:40:45 5 987 0 5 SW 0 81.5 404
19:43:48 5 988 0 5 W 0 82.5 408
19:46:46 5 988 0 5 SW 0 82.9 404
19:49:47 5 988 0 9 W 0 83.6 407
19:52:49 5 988 0 8 SW 0 83.9 406
19:55:47 5 989 0 15 SW 0 84.1 403
19:58:45 5 989 0 10 W 0 84.2 407
20:01:48 5 990 0 7 NW 0 84.1 408
20:04:46 5 988 0 7 S 0 83.7 407
20:07:49 5 989 0 14 NW 0 83.5 404
20:10:48 5 989 0 12 W 0 83.1 404
20:13:46 5 989 0 8 S 0 82.8 407
20:16:47 5 990 0 18 SW 0 82.5 407
20:19:47 5 989 0 5 S 0 82.2 407
20:22:47 5 988 0 10 W 0 82 407
20:25:46 5 989 0 31 SW 0 81.5 407
20:28:48 5 989 0 21 SW 0 80.6 404
20:31:47 5 989 0 11 SW 0 80.2 404
20:34:46 5 990 0 7 SO 0 80.2 407
20:37:44 5 990 0 14 O 0 80.3 404
20:40:46 5 990 0 16 SW 0 79.9 404
20:43:45 5 990 0 6 S 0 79.9 407
20:46:47 5 991 0 8 SW 0 79.8 407
20:49:48 6 990 0 11 SW 0 79.6 407
20:52:45 6 990 0 13 S 0 79.7 407
20:55:48 6 990 0 12 NW 0 79.3 406
20:58:45 6 990 0 10 W 0 79.1 407
21:01:48 6 990 0 8 NW 0 78.5 407
21:04:45 6 991 0 4 W 0 78.2 407
21:07:47 6 990 0 16 SW 0 78.1 407
21:10:45 6 991 0 10 W 0 78 404
21:13:44 6 990 0 13 W 0 77.7 404
21:16:46 6 991 0 9 SO 0 77.4 407
21:19:46 6 991 0 24 W 0 77.3 404
21:22:47 6 990 0 18 S 0 77 403
21:25:45 6 991 0 9 NW 0 76.8 404
21:28:47 6 991 0 8 NW 0 76.6 406
21:31:45 6 991 0 11 W 0 76.5 407
21:34:45 6 991 0 8 SW 0 76.1 406
21:37:45 6 990 0 16 W 0 75.5 404
21:40:45 6 991 0 18 SW 0 75.3 404
21:43:44 6 991 0 7 W 0 75.4 407
21:46:47 6 991 0 15 W 0 75.6 407
21:49:47 6 991 0 18 SW 0 75.5 404
21:52:46 6 991 0 16 SW 0 74.9 407
21:55:45 6 991 0 5 W 0 74.7 407
21:58:45 6 991 0 3 NO 0 74.2 406
22:01:44 6 991 0 14 N 0 74.2 407
22:04:49 6 991 0 18 SW 0 74.3 407
22:07:46 6 991 0 16 SW 0 74.6 404
22:10:48 6 991 0 10 SO 0 74.4 404
22:13:47 6 991 0 18 W 0 73.7 404
22:16:48 6 991 0 11 NW 0 73.6 436
22:19:47 6 991 0 31 NW 0 73.8 439
22:22:46 6 991 0 8 NW 0 73.9 445
22:25:46 6 991 0 22 W 0 73.6 451
22:28:48 6 991 0 8 NO 0 73.5 460
22:31:46 6 991 0 15 NW 0 72.6 463
22:34:47 6 991 0 17 W 0 72 471
22:37:49 6 991 0 20 SW 0 72 475
22:40:45 6 991 0 10 S 0 72.1 480
22:43:46 6 991 0 9 W 0 72.4 483
22:46:47 6 991 0 22 SW 0 72.7 480
22:49:47 5 991 0 18 SW 0 73 478
22:52:44 5 991 0 13 W 0 73 483
22:55:47 5 991 0 8 NW 0 73.3 497
22:58:45 5 991 0 4 SW 0 73.4 495
23:01:49 5 991 0 8 W 0 73.4 498
23:04:46 5 991 0 13 SW 0 73.5 504
23:07:47 5 991 0 11 W 0 73.5 507
23:10:48 5 991 0 14 SO 0 73.5 512
23:13:47 5 991 0 7 SW 0 73.9 515
23:16:46 5 991 0 21 NW 0 73.9 524
23:19:46 5 991 0 4 SO 0 73.6 527
23:22:45 5 991 0 13 W 0 73.6 533
23:25:49 5 991 0 7 SW 0 73.9 536
23:28:44 5 991 0 4 O 0 74.3 536
23:31:46 5 991 0 9 SO 0 74.4 538
23:34:49 5 991 0 8 NW 0 74.3 539
23:37:46 5 991 0 6 SW 0 74.4 533
23:40:47 5 991 0 8 W 0 74.9 524
23:43:47 5 991 0 12 SO 0 75.1 533
23:46:46 5 991 0 2 S 0 76 548
23:49:47 5 991 0 13 SO 0 76.4 550
23:52:46 5 991 0 4 SW 0 76.6 551
23:55:45 4 991 0 2 W 0 76.8 550
23:58:45 5 991 0 9 W 0 77.2 560

Letzte Änderung : 04-Jan-2022
Copyright Jens Köhler, Wolfsburg, Obere Dorfstraße 10d